Hourly Data Report for October 21, 2016

All times are specified in Local Standard Time (LST). Add 1 hour to adjust for Daylight Saving Time where and when it is observed.

HALL BEACH A
NUNAVUT

68°46'33.000" N
81°14'33.000" W
9.10 m
2402354
71293
YUX

Download Data

Hourly Data (October 2016)
Hourly Data Report for October 21, 2016
Temp Definition
°C
Dew Point Temp Definition
°C
Rel Hum Definition
%
Wind Dir Definition
10's deg

Wind Spd Definition
km/h
Visibility Definition
km
Stn Press Definition
kPa
Hmdx Definition


Wind Chill Definition


Weather Definition


TIME
00:00 Legend Double Dagger -15.3 -17.4 84 30 37 16.1 101.04   -27 LegendNANA
01:00 Legend Double Dagger -14.8 -16.9 84 31 39 9.7 101.09   -27 Fog
02:00 Legend Double Dagger -15.7 -18.0 83 30 34 16.1 101.16   -28 LegendNANA
03:00 Legend Double Dagger -15.2 -17.4 83 31 34 16.1 101.21   -27 LegendNANA
04:00 Legend Double Dagger -14.8 -16.9 84 30 34 16.1 101.25   -26 LegendNANA
05:00 Legend Double Dagger -14.2 -16.6 82 31 32 16.1 101.31   -25 LegendNANA
06:00 Legend Double Dagger -14.2 -16.3 84 31 30 16.1 101.34   -25 LegendNANA
07:00 Legend Double Dagger -14.6 -17.0 82 31 30 16.1 101.38   -26 LegendNANA
08:00 Legend Double Dagger -15.0 -17.2 84 31 32 16.1 101.40   -26 LegendNANA
09:00 Legend Double Dagger -15.1 -17.4 83 30 32 16.1 101.42   -26 LegendNANA
10:00 Legend Double Dagger -15.0 -17.5 82 31 32 16.1 101.47   -26 LegendNANA
11:00 Legend Double Dagger -14.9 -17.3 82 30 34 16.1 101.47   -27 LegendNANA
12:00 Legend Double Dagger -14.3 -16.7 82 31 28 16.1 101.53   -25 LegendNANA
13:00 Legend Double Dagger -14.3 -16.9 81 31 32 16.1 101.58   -25 LegendNANA
14:00 Legend Double Dagger -14.4 -17.0 81 31 22 16.1 101.65   -24 LegendNANA
15:00 Legend Double Dagger -14.7 -17.0 83 31 28 16.1 101.69   -25 LegendNANA
16:00 Legend Double Dagger -15.2 -17.5 83 31 28 16.1 101.73   -26 LegendNANA
17:00 Legend Double Dagger -16.2 -18.2 85 30 24 16.1 101.77   -27 LegendNANA
18:00 Legend Double Dagger -17.1 -19.1 85 31 30 16.1 101.85   -29 LegendNANA
19:00 Legend Double Dagger -15.5 -17.1 88 31 30 16.1 101.90   -27 LegendNANA
20:00 Legend Double Dagger -16.8 -18.8 85 31 28 16.1 101.97   -28 LegendNANA
21:00 Legend Double Dagger -17.0 -19.0 85 31 30 16.1 102.02   -29 LegendNANA
22:00 Legend Double Dagger -16.1 -18.1 85 31 30 16.1 102.06   -27 LegendNANA
23:00 Legend Double Dagger -16.6 -18.6 85 31 26 16.1 102.11   -27 LegendNANA

Notes on Data Quality.

Legend

  • E = Estimated
  • M = Missing
  • NA = Not Available
  • ‡ = Partner data that is not subject to review by the National Climate Archives
Date modified: